Weather History for LKPR - September, 2012

Change the Weather History Date:

Sunday, September 23, 2012

  Actual Average Record
Temperature  
Mean Temperature 48 °F -  
Max Temperature 57 °F 58 °F 75 °F (1999)
Min Temperature 40 °F 41 °F 37 °F (1997)
Degree Days  
Heating Degree Days 16    
Moisture  
Dew Point 40 °F    
Average Humidity 73    
Maximum Humidity 93    
Minimum Humidity 43    
Precipitation  
Precipitation 0.00 in 0.04 in - ()
Sea Level Pressure  
Sea Level Pressure 30.06 in    
Wind  
Wind Speed 6 mph ()    
Max Wind Speed 12 mph    
Max Gust Speed -    
Visibility 6.2 miles    
Events      
Averages and records for this station are not official NWS values.
T = Trace of Precipitation, MM = Missing Value Source: Averaged Metar Reports

Daily Weather History Graph

Daily Weather History Graph

Search for Another Location

Airport or City:

Trip Planner

Search our weather history database for the weather conditions in past years. The results will help you decide how hot, cold, wet, or windy it might be!

Date:

Astronomy

Sep. 23, 2012 Rise Set
Actual Time 6:51 AM CEST 6:58 PM CEST
Civil Twilight 6:18 AM CEST 7:30 PM CEST
Nautical Twilight 5:40 AM CEST 8:08 PM CEST
Astronomical Twilight 5:01 AM CEST 8:47 PM CEST
Moon 3:17 PM CEST (9/23) No Moon Set
Length of Visible Light 13h 11m
Length of Day
12h 07m
First Quarter, 57% of the Moon is Illuminated
Sep 23
First Quarter
Sep 30
Full
Oct 8
Last Quarter
Oct 15
New
Oct 22
First Quarter

Hourly Weather History & Observations

Time (CEST) Temp. Windchill Dew Point Humidity Pressure Visibility Wind Dir Wind Speed Gust Speed Precip Events Conditions
12:00 AM 42.8 °F 38.0 °F 39.2 °F 87% 30.09 in - SW 8.1 mph - N/A   Clear
12:30 AM 44.6 °F 40.2 °F 39.2 °F 81% 30.09 in - SSW 8.1 mph - N/A   Clear
1:00 AM 44.6 °F 38.8 °F 39.2 °F 81% 30.09 in - SW 11.5 mph - N/A   Clear
1:30 AM 44.6 °F 39.7 °F 39.2 °F 81% 30.12 in - SW 9.2 mph - N/A   Clear
2:00 AM 43 °F - 38 °F 78% 30.16 in 37 mi WSW 6.7 mph - -  
2:00 AM 42.8 °F 40.1 °F 39.2 °F 87% 30.12 in - SW 4.6 mph - N/A   Clear
2:30 AM 41.0 °F 36.4 °F 37.4 °F 87% 30.12 in - SW 6.9 mph - N/A   Clear
3:00 AM 41.0 °F 36.4 °F 37.4 °F 87% 30.12 in - SW 6.9 mph - N/A   Clear
3:30 AM 41.0 °F 35.8 °F 37.4 °F 87% 30.09 in - SW 8.1 mph - N/A   Clear
4:00 AM 41.0 °F 35.8 °F 37.4 °F 87% 30.09 in - SW 8.1 mph - N/A   Clear
4:30 AM 41.0 °F 35.8 °F 39.2 °F 93% 30.09 in - SW 8.1 mph - N/A   Clear
5:00 AM 42.8 °F 38.0 °F 39.2 °F 87% 30.12 in - SW 8.1 mph - N/A   Clear
5:30 AM 42.8 °F 39.3 °F 39.2 °F 87% 30.09 in - SW 5.8 mph - N/A   Clear
6:00 AM 42.8 °F 39.3 °F 39.2 °F 87% 30.09 in - SW 5.8 mph - N/A   Clear
6:30 AM 42.8 °F 39.3 °F 39.2 °F 87% 30.12 in - SW 5.8 mph - N/A   Clear
7:00 AM 42.8 °F 38.6 °F 39.2 °F 87% 30.12 in - SW 6.9 mph - N/A   Clear
7:30 AM 42.8 °F 39.3 °F 39.2 °F 87% 30.12 in - WSW 5.8 mph - N/A   Clear
8:00 AM 43 °F - 40 °F 84% 30.16 in 44 mi WSW 4.5 mph - -   Mostly Cloudy
8:00 AM 42.8 °F 40.1 °F 39.2 °F 87% 30.12 in - SW 4.6 mph - N/A   Clear
8:30 AM 46.4 °F 45.2 °F 41.0 °F 81% 30.12 in - West 3.5 mph - N/A   Clear
9:00 AM 48.2 °F - 41.0 °F 76% 30.12 in - Variable 2.3 mph - N/A   Clear
9:30 AM 51.8 °F - 41.0 °F 67% 30.12 in - Variable 2.3 mph - N/A   Clear
10:00 AM 51.8 °F - 42.8 °F 71% 30.12 in - Variable 2.3 mph - N/A   Clear
10:30 AM 51.8 °F - 41.0 °F 67% 30.12 in - East 4.6 mph - N/A   Clear
11:00 AM 51.8 °F - 41.0 °F 67% 30.12 in - East 4.6 mph - N/A   Clear
11:30 AM 51.8 °F - 42.8 °F 71% 30.09 in - SSE 4.6 mph - N/A   Clear
12:00 PM 53.6 °F - 41.0 °F 62% 30.09 in - Variable 2.3 mph - N/A   Clear
12:30 PM 53.6 °F - 39.2 °F 58% 30.09 in - ESE 5.8 mph - N/A   Clear
1:00 PM 55.4 °F - 41.0 °F 58% 30.09 in - East 5.8 mph - N/A   Clear
1:30 PM 55.4 °F - 42.8 °F 63% 30.06 in 6.2 mi SSE 4.6 mph - N/A   Partly Cloudy
2:00 PM 56 °F - 40 °F 43% 30.07 in 31 mi SSE 6.7 mph - -   Scattered Clouds
2:00 PM 55.4 °F - 41.0 °F 58% 30.06 in 6.2 mi Variable 4.6 mph - N/A   Partly Cloudy
2:30 PM 55.4 °F - 39.2 °F 54% 30.06 in 6.2 mi Variable 3.5 mph - N/A   Partly Cloudy
3:00 PM 57.2 °F - 39.2 °F 51% 30.04 in 6.2 mi South 3.5 mph - N/A   Partly Cloudy
3:30 PM 57.2 °F - 39.2 °F 51% 30.04 in 6.2 mi Variable 2.3 mph - N/A   Partly Cloudy
4:00 PM 57.2 °F - 37.4 °F 48% 30.04 in - ESE 6.9 mph - N/A   Clear
4:30 PM 57.2 °F - 39.2 °F 51% 30.01 in - ESE 5.8 mph - N/A   Clear
5:00 PM 57.2 °F - 41.0 °F 55% 30.01 in - East 6.9 mph - N/A   Clear
5:30 PM 57.2 °F - 41.0 °F 55% 30.01 in - East 8.1 mph - N/A   Clear
6:00 PM 57.2 °F - 41.0 °F 55% 29.98 in - East 6.9 mph - N/A   Clear
6:30 PM 53.6 °F - 42.8 °F 67% 29.98 in - ENE 9.2 mph - N/A   Clear
7:00 PM 50.0 °F - 42.8 °F 76% 29.98 in - East 8.1 mph - N/A   Clear
7:30 PM 48.2 °F - 42.8 °F 82% 29.95 in - East 10.4 mph - N/A   Clear
8:00 PM 48.2 °F - 41.0 °F 76% 29.98 in - East 8.1 mph - N/A   Clear
8:30 PM 50.0 °F - 42.8 °F 76% 29.98 in 6.2 mi East 5.8 mph - N/A   Mostly Cloudy
9:00 PM 51.8 °F - 42.8 °F 71% 29.95 in 6.2 mi East 6.9 mph - N/A   Mostly Cloudy
9:30 PM 50.0 °F - 41.0 °F 71% 29.95 in 6.2 mi ESE 6.9 mph - N/A   Mostly Cloudy
10:00 PM 48.2 °F - 41.0 °F 76% 29.92 in 6.2 mi East 6.9 mph - N/A   Partly Cloudy
10:30 PM 48.2 °F - 42.8 °F 82% 29.92 in - East 5.8 mph - N/A   Clear
11:00 PM 48.2 °F - 42.8 °F 82% 29.89 in - ESE 5.8 mph - N/A   Clear
11:30 PM 46.4 °F 44.3 °F 41.0 °F 81% 29.89 in - ESE 4.6 mph - N/A   Clear